NOAA-14
1 23455U 94089A   04330.29119555  .00000128  00000-0  92686-4 0  3648
2 23455  99.1217   8.9987 0009220 210.7369 149.3254 14.13512361510698
SICH-1
1 23657U 95046A   04330.40934315  .00000677  00000-0  83894-4 0  2849
2 23657  82.5304 228.1745 0025981  73.1802 287.2248 14.81002291497799
NOAA-15
1 25338U 98030A   04330.16223550  .00000078  00000-0  52110-4 0  8127
2 25338  98.5177 338.6910 0009819 232.4101 127.6201 14.24469243339700
RESURS
1 25394U 98043A   04329.88985850  .00000040  00000-0  36169-4 0  9551
2 25394  98.5658  38.6613 0002143  58.2614 301.8770 14.24036711331371
FENGYUN1
1 25730U 99025A   04329.59957650 -.00000095  00000-0 -29095-4 0  2871
2 25730  98.6061 333.6089 0013785 327.1905  32.8430 14.11782856285640
OKEAN-0
1 25860U 99039A   04330.67769016  .00000247  00000-0  45672-4 0  2885
2 25860  97.7801 359.2969 0001959 114.3841 245.7592 14.73157335288049
NOAA-16
1 26536U 00055A   04330.17064175 -.00000162  00000-0 -63359-4 0  1165
2 26536  98.9843 281.7613 0009871 285.3026  74.7055 14.12177737215268
NOAA-17
1 27453U 02032A   04330.32950951  .00000060  00000-0  45416-4 0  1376
2 27453  98.6860  40.7154 0010967 287.2478  72.7519 14.23598857125834
HUBBLE
1 20580U 90037B   04330.87167497  .00001121  00000-0  76131-4 0  2140
2 20580  28.4673 153.2896 0004123 269.5938  90.4179 14.99454423599696
UARS
1 21701U 91063B   04330.44259648 -.00000013  00000-0  17742-4 0  3187
2 21701  56.9811 295.8880 0004489  83.7180 276.4374 15.03689198722841
PO-34
1 25520U 98064B   04329.12927931  .00001635  00000-0  73178-4 0   584
2 25520  28.4610 242.8834 0005698 156.0374 204.0482 15.15922392335439
ISS
1 25544U 98067A   04330.99699074  .00027216  00000-0  22011-3 0  2241
2 25544  51.6391 219.9608 0004466  47.2409 144.9327 15.70597224343730
OO-38
1 26063U 00004C   04329.93486633  .00000070  00000-0  44493-4 0  2180
2 26063 100.2239 146.3861 0036564 270.1909  89.5100 14.35684728252984
NO-45
1 26932U 01043D   04330.33479424  .00000016  00000-0  38756-4 0  9019
2 26932  67.0611  32.4508 0007454 282.6592  77.3679 14.29456007164661
